Latest Weather Observations for Mount William

IDV60801

Issued at 4:32 pm EDT Saturday 31 January 2015 (issued every 30 minutes, with the page automatically refreshed every 10 minutes)

About weather observations | Map of weather stations | Latest weather observations for VIC | Other Formats
Station Details ID: 079103 Name: MOUNT WILLIAM Lat: -37.30 Lon: 142.60 Height: 1150.0 m
Data from the previous 72 hours. | See also: Recent months at Mount William
Date/Time
EDT
Temp
°C
App
Temp
°C
Dew
Point
Rel
Hum
%
Delta-T
°C
Wind Press
QNH
hPa
Press
MSL
hPa
Rain
since 9 am
mm
Dir
 
Spd
km/h
Gust
km/h
Spd
kts
Gust
kts
31/04:30pm 8.6 2.7 7.5 93 0.6 SW 28 48 15 26 - - 0.0
31/04:13pm 9.3 3.4 7.3 87 1.0 SSW 28 54 15 29 - - 0.0
31/04:00pm 9.6 3.3 7.5 87 1.1 SSW 30 44 16 24 - - 0.0
31/03:30pm 9.1 4.0 7.5 90 0.8 SW 24 43 13 23 - - 0.0
31/03:00pm 8.6 2.7 7.4 92 0.6 SW 28 50 15 27 - - 0.0
31/02:59pm 8.7 2.8 7.3 91 0.7 SW 28 50 15 27 - - 0.0
31/02:30pm 9.9 5.4 7.0 82 1.5 SSW 20 41 11 22 - - 0.0
31/02:00pm 10.9 6.6 6.8 76 2.1 SW 19 37 10 20 - - 0.0
31/01:30pm 10.9 6.0 6.8 76 2.1 SW 22 39 12 21 - - 0.0
31/01:00pm 10.2 5.2 6.5 78 1.9 SSW 22 41 12 22 - - 0.0
31/12:30pm 9.8 4.9 6.7 81 1.6 SW 22 33 12 18 - - 0.0
31/12:00pm 8.7 3.8 8.6 99 0.1 SSW 24 37 13 20 - - 0.0
31/11:30am 7.9 2.5 7.8 99 0.1 SSW 26 43 14 23 - - 0.0
31/11:00am 7.0 1.0 6.9 99 0.0 SSW 28 43 15 23 - - 0.0
31/10:30am 6.9 -0.1 6.8 99 0.0 S 33 48 18 26 - - 0.0
31/10:01am 6.7 -0.4 6.6 99 0.0 S 33 52 18 28 - - 0.0
31/10:00am 6.7 -0.7 6.6 99 0.0 S 35 52 19 28 - - 0.0
31/09:30am 6.3 -1.2 6.2 99 0.0 S 35 56 19 30 - - 0.0
31/09:00am 6.5 -2.5 6.4 99 0.0 S 43 56 23 30 - - 0.2
31/08:40am 6.3 -2.7 6.2 99 0.0 S 43 61 23 33 - - 0.2
31/08:30am 6.4 -3.6 6.3 99 0.0 S 48 63 26 34 - - 0.2
31/08:00am 6.5 -3.8 6.4 99 0.0 S 50 63 27 34 - - 0.2
31/07:38am 6.2 -4.2 6.1 99 0.0 S 50 69 27 37 - - 0.2
31/07:30am 6.1 -4.7 6.0 99 0.0 S 52 67 28 36 - - 0.2
31/07:00am 5.9 -3.8 5.8 99 0.0 S 46 59 25 32 - - 0.2
31/06:49am 5.8 -4.3 5.7 99 0.0 S 48 69 26 37 - - 0.2
31/06:30am 5.7 -4.4 5.6 99 0.0 S 48 57 26 31 - - 0.2
31/06:00am 5.8 -3.9 5.7 99 0.0 S 46 61 25 33 - - 0.2
31/05:30am 6.0 -4.1 5.9 99 0.0 S 48 65 26 35 - - 0.2
31/05:00am 5.7 -4.8 5.6 99 0.0 S 50 69 27 37 - - 0.2
31/04:30am 5.6 -5.3 5.5 99 0.0 S 52 63 28 34 - - 0.2
31/04:00am 5.8 -4.3 5.7 99 0.0 SSW 48 63 26 34 - - 0.2
31/03:30am 5.5 -5.0 5.4 99 0.0 S 50 59 27 32 - - 0.2
31/03:00am 6.0 -4.1 5.9 99 0.0 S 48 61 26 33 - - 0.0
31/02:30am 5.8 -4.3 5.7 99 0.0 S 48 63 26 34 - - 0.0
31/02:00am 6.0 -3.7 5.9 99 0.0 S 46 57 25 31 - - 0.0
31/01:30am 6.1 -2.2 6.0 99 0.0 S 39 54 21 29 - - 0.0
31/01:16am 6.1 -1.8 6.0 99 0.0 S 37 56 20 30 - - 0.0
31/01:00am 6.3 0.1 6.2 99 0.0 S 28 46 15 25 - - 0.0
31/12:52am 6.3 -0.7 6.2 99 0.0 S 32 50 17 27 - - 0.0
31/12:30am 6.4 -0.1 6.3 99 0.0 S 30 46 16 25 - - 0.0
31/12:00am 6.1 -1.1 6.0 99 0.0 S 33 48 18 26 - - 0.0
 
Date/Time
EDT
Temp
°C
App
Temp
°C
Dew
Point
Rel
Hum
%
Delta-T
°C
Wind Press
QNH
hPa
Press
MSL
hPa
Rain
since 9 am
mm
Dir
 
Spd
km/h
Gust
km/h
Spd
kts
Gust
kts
30/11:30pm 5.6 -3.2 5.5 99 0.0 S 41 48 22 26 - - 0.0
30/11:00pm 5.7 -2.1 5.0 95 0.3 SSW 35 44 19 24 - - 0.0
30/10:30pm 6.2 -0.4 6.1 99 0.0 SSW 30 44 16 24 - - 0.0
30/10:00pm 6.7 0.6 6.6 99 0.0 SSW 28 43 15 23 - - 0.0
30/09:30pm 6.9 0.0 6.3 96 0.3 SSW 32 44 17 24 - - 0.0
30/09:00pm 7.1 0.0 5.7 91 0.7 SSW 32 46 17 25 - - 0.0
30/08:30pm 7.9 1.1 5.0 82 1.4 SSW 30 39 16 21 - - 0.0
30/08:00pm 9.0 1.8 5.7 80 1.6 SSW 33 43 18 23 - - 0.0
30/07:30pm 10.1 3.3 5.3 72 2.3 SSW 30 46 16 25 - - 0.0
30/07:28pm 10.3 4.0 5.5 72 2.4 SSW 28 46 15 25 - - 0.0
30/07:00pm 11.0 4.6 5.3 68 2.8 SSW 28 41 15 22 - - 0.0
30/06:30pm 11.9 5.9 5.3 64 3.3 SSW 26 46 14 25 - - 0.0
30/05:30pm 14.1 9.6 6.2 59 4.0 SSW 19 32 10 17 - - 0.0
30/05:00pm 13.5 9.0 5.9 60 3.8 SSW 19 33 10 18 - - 0.0
30/04:30pm 13.6 8.8 5.5 58 4.1 SSW 20 33 11 18 - - 0.0
30/04:00pm 13.9 10.1 5.8 58 4.1 SSW 15 28 8 15 - - 0.0
30/03:30pm 13.4 10.1 6.3 62 3.6 SSW 13 22 7 12 - - 0.0
30/03:00pm 12.4 8.9 5.3 62 3.5 SW 13 32 7 17 - - 0.0
30/02:30pm 11.5 7.5 4.9 64 3.2 SSW 15 24 8 13 - - 0.0
30/02:00pm 11.1 7.9 5.0 66 3.0 SSW 11 19 6 10 - - 0.0
30/01:30pm 10.2 5.8 5.0 70 2.5 SW 17 32 9 17 - - 0.0
30/01:00pm 11.1 6.9 5.8 70 2.6 S 17 32 9 17 - - 0.0
30/12:30pm 11.5 6.8 6.2 70 2.7 S 20 32 11 17 - - 0.0
30/12:00pm 9.4 4.7 5.0 74 2.1 S 19 35 10 19 - - 0.0
30/11:30am 10.6 6.6 6.7 77 2.0 SSE 17 30 9 16 - - 0.0
30/11:00am 8.6 4.9 7.8 95 0.4 S 17 35 9 19 - - 0.0
30/10:30am 7.3 2.9 7.2 99 0.0 S 20 28 11 15 - - 0.0
30/10:00am 6.5 1.9 6.4 99 0.0 SSE 20 41 11 22 - - 0.0
30/09:30am 7.2 3.3 7.1 99 0.0 SSE 17 28 9 15 - - 0.0
30/09:00am 6.5 1.5 6.4 99 0.0 SSE 22 33 12 18 - - 0.0
30/08:30am 6.1 0.6 6.0 99 0.0 SSE 24 37 13 20 - - 0.0
30/08:00am 5.7 0.1 5.6 99 0.0 SSE 24 37 13 20 - - 0.0
30/07:30am 5.8 0.3 5.7 99 0.0 SE 24 37 13 20 - - 0.0
30/07:00am 5.9 -0.4 5.8 99 0.0 SSE 28 43 15 23 - - 0.0
30/06:30am 6.0 -0.3 5.9 99 0.0 SSE 28 46 15 25 - - 0.0
30/06:02am 6.1 -0.5 6.0 99 0.0 SE 30 50 16 27 - - 0.0
30/06:00am 6.0 -1.0 5.9 99 0.0 SE 32 50 17 27 - - 0.0
30/05:55am 6.1 -0.1 6.0 99 0.0 SE 28 50 15 27 - - 0.0
30/05:30am 6.0 0.5 5.9 99 0.0 SE 24 39 13 21 - - 0.0
30/05:00am 6.0 1.5 5.9 99 0.0 ESE 19 35 10 19 - - 0.0
30/04:30am 6.2 1.7 6.1 99 0.0 ESE 19 35 10 19 - - 0.0
30/04:00am 6.3 1.6 6.2 99 0.0 ESE 20 32 11 17 - - 0.0
30/03:30am 6.3 0.9 6.2 99 0.0 ESE 24 35 13 19 - - 0.0
30/03:00am 6.3 -0.7 6.2 99 0.0 E 32 48 17 26 - - 0.0
30/02:45am 6.4 -0.1 6.3 99 0.0 ESE 30 48 16 26 - - 0.0
30/02:30am 6.3 0.5 6.2 99 0.0 ESE 26 43 14 23 - - 0.0
30/02:00am 6.4 0.2 6.3 99 0.0 ESE 28 56 15 30 - - 0.0
30/01:30am 6.4 1.0 6.3 99 0.0 ESE 24 46 13 25 - - 0.0
30/01:00am 6.2 0.7 6.1 99 0.0 ESE 24 39 13 21 - - 0.0
30/12:30am 6.1 -0.5 6.0 99 0.0 SE 30 44 16 24 - - 0.0
30/12:00am 5.9 0.4 5.8 99 0.0 ESE 24 41 13 22 - - 0.0
 
Date/Time
EDT
Temp
°C
App
Temp
°C
Dew
Point
Rel
Hum
%
Delta-T
°C
Wind Press
QNH
hPa
Press
MSL
hPa
Rain
since 9 am
mm
Dir
 
Spd
km/h
Gust
km/h
Spd
kts
Gust
kts
29/11:30pm 5.8 -0.5 5.7 99 0.0 SE 28 44 15 24 - - 0.0
29/11:00pm 6.0 -1.1 5.4 96 0.3 SE 32 50 17 27 - - 0.0
29/10:30pm 6.3 -0.5 5.1 92 0.6 SE 30 50 16 27 - - 0.0
29/10:00pm 6.8 0.4 5.0 88 0.8 ESE 28 50 15 27 - - 0.0
29/09:30pm 7.4 0.9 4.5 82 1.4 SE 28 52 15 28 - - 0.0
29/09:00pm 8.2 1.6 4.4 77 1.8 SE 28 50 15 27 - - 0.0
29/08:59pm 8.3 1.7 4.3 76 1.9 SE 28 50 15 27 - - 0.0
29/08:30pm 9.1 3.1 3.3 67 2.7 SSE 24 41 13 22 - - 0.0
29/08:07pm 10.0 3.1 2.6 60 3.4 S 28 52 15 28 - - 0.0
29/08:00pm 10.3 4.1 2.4 58 3.6 S 24 46 13 25 - - 0.0
29/07:30pm 11.0 3.3 2.1 54 4.1 S 32 56 17 30 - - 0.0
29/07:27pm 11.2 4.2 2.2 54 4.1 S 28 52 15 28 - - 0.0
29/07:00pm 11.9 5.7 2.4 52 4.4 SSE 24 50 13 27 - - 0.0
29/06:31pm 12.3 5.5 3.3 54 4.3 SSE 28 48 15 26 - - 0.0
29/06:30pm 12.3 5.9 3.3 54 4.3 SSE 26 48 14 26 - - 0.0
29/06:00pm 12.7 6.0 3.4 53 4.4 S 28 56 15 30 - - 0.0
29/05:30pm 13.1 5.6 3.7 53 4.5 SSE 32 50 17 27 - - 0.0
29/05:00pm 13.3 6.3 3.9 53 4.5 S 30 56 16 30 - - 0.0
29/04:30pm 13.6 7.1 4.5 54 4.5 SSW 28 56 15 30 - - 0.0
29/04:01pm 13.8 7.7 4.7 54 4.5 SSE 26 46 14 25 - - 0.0
29/04:00pm 13.8 7.7 4.9 55 4.4 S 26 46 14 25 - - 0.0
29/03:30pm 14.1 9.1 4.7 53 4.7 SSE 20 43 11 23 - - 0.0
29/03:01pm 13.5 7.0 4.6 55 4.4 SSE 28 56 15 30 - - 0.0
29/03:00pm 13.5 7.4 4.6 55 4.4 SSE 26 56 14 30 - - 0.0
29/02:30pm 13.4 7.8 5.3 58 4.0 SSE 24 46 13 25 - - 0.0
29/02:09pm 12.3 6.2 5.0 61 3.6 SSE 26 52 14 28 - - 0.0
29/02:00pm 12.7 6.7 5.4 61 3.6 SSE 26 46 14 25 - - 0.0
29/01:30pm 13.1 7.5 5.5 60 3.8 SE 24 46 13 25 - - 0.0
29/01:00pm 12.1 6.9 5.7 65 3.2 SSE 22 43 12 23 - - 0.0
29/12:30pm 11.9 6.8 5.8 66 3.0 SE 22 44 12 24 - - 0.0
29/12:00pm 10.3 3.1 5.1 70 2.5 SE 32 56 17 30 - - 0.0
29/11:39am 10.4 4.1 5.8 73 2.3 SE 28 54 15 29 - - 0.0
29/11:30am 10.4 5.0 6.2 75 2.1 ESE 24 48 13 26 - - 0.0
29/11:00am 9.2 1.8 5.2 76 1.9 SE 33 61 18 33 - - 0.0
29/10:30am 8.8 1.4 5.2 78 1.7 ESE 33 59 18 32 - - 0.0
29/10:00am 8.0 1.4 7.6 97 0.2 ESE 32 54 17 29 - - 0.0
29/09:30am 6.7 -0.2 6.6 99 0.0 ESE 32 56 17 30 - - 0.0
29/09:00am 6.5 0.0 6.4 99 0.0 ESE 30 57 16 31 - - 0.0
29/08:30am 6.3 -0.3 6.2 99 0.0 ESE 30 52 16 28 - - 0.0
29/08:00am 5.8 -0.9 5.7 99 0.0 ESE 30 54 16 29 - - 0.0
29/07:30am 5.6 -2.1 5.5 99 0.0 ESE 35 61 19 33 - - 0.0
29/07:00am 5.6 -2.1 5.5 99 0.0 ESE 35 56 19 30 - - 0.0
29/06:30am 5.8 -2.2 5.7 99 0.0 ESE 37 57 20 31 - - 0.0
29/06:00am 5.9 -2.1 5.8 99 0.0 ESE 37 61 20 33 - - 0.0
29/05:41am 6.1 -1.1 6.0 99 0.0 ESE 33 52 18 28 - - 0.0
29/05:30am 6.2 -1.3 6.1 99 0.0 ESE 35 52 19 28 - - 0.0
29/05:10am 6.2 -0.8 6.1 99 0.0 ESE 32 52 17 28 - - 0.0
29/05:00am 6.2 -1.0 6.1 99 0.0 ESE 33 50 18 27 - - 0.0
29/04:31am 6.3 -0.7 6.2 99 0.0 ESE 32 52 17 28 - - 0.0
29/04:30am 6.3 -0.7 6.2 99 0.0 ESE 32 46 17 25 - - 0.0
29/04:00am 6.4 -1.9 6.3 99 0.0 E 39 50 21 27 - - 0.0
29/03:30am 6.3 -0.8 6.2 99 0.0 E 33 50 18 27 - - 0.0
29/03:00am 6.2 -0.8 6.1 99 0.0 ESE 32 52 17 28 - - 0.0
29/02:30am 6.3 -0.7 6.2 99 0.0 ESE 32 61 17 33 - - 0.0
29/02:00am 6.3 -0.8 6.2 99 0.0 ESE 33 59 18 32 - - 0.0
29/01:30am 6.2 0.0 6.1 99 0.0 ESE 28 48 15 26 - - 0.0
29/01:00am 6.1 -0.9 6.0 99 0.0 SE 32 54 17 29 - - 0.0
29/12:30am 6.1 -0.9 6.0 99 0.0 SE 32 54 17 29 - - 0.0
29/12:00am 6.0 -2.0 5.9 99 0.0 SE 37 56 20 30 - - 0.0
 
Date/Time
EDT
Temp
°C
App
Temp
°C
Dew
Point
Rel
Hum
%
Delta-T
°C
Wind Press
QNH
hPa
Press
MSL
hPa
Rain
since 9 am
mm
Dir
 
Spd
km/h
Gust
km/h
Spd
kts
Gust
kts
28/11:48pm 6.0 -1.6 5.9 99 0.0 SE 35 54 19 29 - - 0.0
28/11:30pm 6.1 -1.9 5.8 98 0.1 SE 37 54 20 29 - - 0.0
28/11:00pm 6.4 -1.4 5.0 91 0.7 SE 35 56 19 30 - - 0.0
28/10:30pm 6.9 -1.7 4.4 84 1.2 SE 39 61 21 33 - - 0.0
28/10:02pm 7.4 -0.9 4.2 80 1.5 SE 37 56 20 30 - - 0.0
28/10:00pm 7.4 -0.9 4.2 80 1.5 SE 37 54 20 29 - - 0.0
28/09:30pm 8.1 0.3 4.9 80 1.5 SE 35 63 19 34 - - 0.0
28/09:00pm 8.9 0.0 5.1 77 1.8 SE 41 67 22 36 - - 0.0
28/08:30pm 9.7 0.8 5.3 74 2.1 SE 41 63 22 34 - - 0.0
28/08:00pm 10.7 3.0 5.5 70 2.6 SE 35 65 19 35 - - 0.0
28/07:30pm 11.7 4.1 5.6 66 3.0 SE 35 56 19 30 - - 0.0
28/07:00pm 12.6 5.8 5.1 60 3.7 SE 30 61 16 33 - - 0.0
28/06:30pm 13.0 6.0 3.9 54 4.4 SE 30 57 16 31 - - 0.0
28/06:03pm 13.6 7.1 4.5 54 4.5 SE 28 67 15 36 - - 0.0
28/06:00pm 13.8 7.7 4.9 55 4.4 SE 26 52 14 28 - - 0.0
28/05:36pm 14.3 7.9 5.1 54 4.6 SSE 28 56 15 30 - - 0.0
28/05:30pm 14.2 8.1 5.0 54 4.6 SSE 26 46 14 25 - - 0.0
28/05:00pm 14.5 7.8 5.6 55 4.5 SE 30 56 16 30 - - 0.0

Other Formats:

Comma delimited format used in spreadsheet applications
http://www.bom.gov.au/fwo/IDV60801/IDV60801.94833.axf

JavaScript Object Notation format (JSON) in row-major order
http://www.bom.gov.au/fwo/IDV60801/IDV60801.94833.json